Regional Weather Roundup
Issued by NWS

Home | Current Version | Previous Version | Text Only | Print | Product List | Glossary Off
Versions: 1 2 3 4 5 6 7 8 9 10 11 12 13 14 15 16 17 18 19 20 21 22 23 24 25 26 27 28 29 30 31 32 33 34 35 36 37 38 39 40 41 42 43 44 45 46 47 48 49 50

000
ASUS43 KTOP 302208
RWRKS

WEATHER ROUNDUP FOR KANSAS
NATIONAL WEATHER SERVICE GOODLAND KS
500 PM CDT TUE JUN 30 2015

NOTE:  "FAIR" INDICATES FEW OR NO CLOUDS BELOW 12,000 FEET WITH NO
SIGNIFICANT WEATHER AND/OR OBSTRUCTIONS TO VISIBILITY.

KSZ001>006-013>018-027>032-041>047-302300-
NORTHWEST KANSAS

CITY           SKY/WX    TMP DP  RH WIND       PRES   REMARKS
GOODLAND       SUNNY     95  48  20 S9        29.96F
HAYS           SUNNY    100  48  17 SW18G24   29.86F HX  97
HILL CITY      MOSUNNY  102  46  15 W13       29.85F HX  98
RUSSELL        MOSUNNY  102  50  17 W13G22    29.83F HX  99
$$

KSZ061>065-074>080-084>089-302300-
SOUTHWEST KANSAS

CITY           SKY/WX    TMP DP  RH WIND       PRES   REMARKS
DODGE CITY     MOSUNNY   94  50  22 SW12      29.95F
ELKHART          N/A     97  49  19 S8          N/A
GARDEN CITY    MOSUNNY   93  54  26 SW14      29.95F
GREAT BEND     PTSUNNY   99  54  22 SW13G20   29.87F HX  96
LIBERAL        SUNNY     95  52  23 S15       29.98F
PRATT          PTSUNNY  N/A N/A N/A SW13      29.93F
$$

KSZ066>073-081>083-090>101-302300-
SOUTHEAST KANSAS

CITY           SKY/WX    TMP DP  RH WIND       PRES   REMARKS
CHANUTE        MOSUNNY   93  65  39 S7        29.89F HX  95
COFFEYVILLE    MOSUNNY   94  68  42 SW6       29.89F HX  98
HUTCHINSON     PTSUNNY   98  55  23 SW10      29.87F HX  96
MEDICINE LODGE   N/A     97  52  21 S14       29.89F
NEWTON         PTSUNNY   93  57  29 W12G17    29.91F
PARSONS        MOSUNNY   94  68  42 SW3       29.91F HX  98
WICHITA INTL   PTSUNNY   99  58  25 SW8       29.87F HX  98
WICHITA JABRA  MOSUNNY   98  58  26 W15       29.88F HX  97
WICHITA MCCONL SUNNY     98  61  28 SW9G20    29.88F HX  98
WINFIELD       SUNNY    100  56  23 SW7       29.89F HX  99
$$

KSZ007>012-019>026-033>040-048>060-102>105-302300-
NORTHEAST KANSAS

CITY           SKY/WX    TMP DP  RH WIND       PRES   REMARKS
CONCORDIA      PTSUNNY   96  61  31 SW10      29.84F HX  96
EMPORIA        MOSUNNY   95  62  33 S8        29.87F HX  96
LAWRENCE       MOSUNNY   89  68  49 SE7       29.88F
MANHATTAN      PTSUNNY   96  63  33 S6        29.83F HX  97
MARYSVILLE     PTSUNNY   90  68  48 SE14      29.85F
OLATHE IND     PTSUNNY   91  62  37 NE3       29.91F HAZE
OLATHE EXE     PTSUNNY   87  64  46 E6        29.91F
SALINA         CLOUDY   102  54  20 SW9       29.84F HX 100
TOPEKA BILLARD SUNNY     89  68  49 E10       29.87F
TOPEKA FORBES  MOSUNNY   90  64  42 SE9       29.88F
$$



USA.gov is the U.S. government's official web portal to all federal, state and local government web resources and services.